This demonstration page uses our WeatherBlox Daily Observations layout. Learn more.

Left ArrowRight Arrow

41.12389, -100.76542

Hourly Observations for October 4, 2022

Temp ( °F °C ) Dew Point ( °F °C ) Humidity (%) Winds ( mph kmh ) Pressure ( in mb ) Visibility ( mi km ) Precip ( " mm )
12:53 am 00:53 Clear 54 12.2 52 11.1 93 93 Calm 30.08 1019 10 16 0.00 0.00
1:53 am 01:53 Clear 54 12.2 51 10.6 90 90 W 3 6 30.07 1018 10 16 0.00 0.00
2:53 am 02:53 Clear 53 11.7 51 10.6 93 93 Calm 30.06 1018 10 16 0.00 0.00
3:53 am 03:53 Clear with Mist and Fog 50 10 48 8.9 93 93 NW 3 6 30.07 1018 1 2 0.00 0.00
3:59 am 03:59 Clear with Mist and Fog 50 10 49 9.4 96 96 WNW 3 6 30.09 1019 2 3 0.00 0.00
4:07 am 04:07 Clear 51 10.6 49 9.4 92 92 NW 5 7 30.09 1019 9 14 0.00 0.00
4:53 am 04:53 Clear 52 11.1 49 9.4 89 89 Calm 30.06 1018 10 16 0.00 0.00
5:53 am 05:53 Clear 52 11.1 50 10 93 93 WNW 5 7 30.09 1019 10 16 0.00 0.00
6:53 am 06:53 Mostly Cloudy 52 11.1 49 9.4 89 89 Calm 30.09 1019 10 16 0.00 0.00
7:53 am 07:53 Mostly Cloudy 52 11.1 50 10 93 93 Calm 30.09 1019 10 16 0.00 0.00
8:53 am 08:53 Sunny 54 12.2 51 10.6 90 90 Calm 30.11 1020 10 16 0.00 0.00
9:53 am 09:53 Sunny 59 15 53 11.7 81 81 Calm 30.11 1020 10 16 0.00 0.00
10:53 am 10:53 Sunny 65 18.3 55 12.8 70 70 N 9 15 30.10 1019 10 16 0.00 0.00
11:53 am 11:53 Sunny 66 18.9 52 11.1 61 61 NW 8 13 30.10 1019 10 16 0.00 0.00
12:53 pm 12:53 Sunny 69 20.6 51 10.6 53 53 VRB 5 7 30.09 1019 10 16 0.00 0.00
1:53 pm 13:53 Partly Cloudy 72 22.2 51 10.6 48 48 NNW 8 13 30.07 1018 10 16 0.00 0.00
2:53 pm 14:53 Mostly Sunny 73 22.8 51 10.6 46 46 SW 9 15 30.05 1018 10 16 0.00 0.00
3:53 pm 15:53 Mostly Sunny 74 23.3 48 8.9 40 40 VRB 3 6 30.04 1017 10 16 0.00 0.00
4:53 pm 16:53 Partly Cloudy 69 20.6 50 10 51 51 NW 9 15 30.05 1018 10 16 0.03 0.76
5:53 pm 17:53 Partly Cloudy 68 20 47 8.3 47 47 NW 10 17 30.06 1018 10 16 0.01 0.13
6:53 pm 18:53 Sunny 66 18.9 51 10.6 59 59 WNW 6 9 30.07 1018 10 16 0.00 0.00
7:53 pm 19:53 Clear 59 15 51 10.6 75 75 Calm 30.09 1019 10 16 0.00 0.00
8:53 pm 20:53 Clear 55 12.8 46 7.8 72 72 NW 7 11 30.11 1020 10 16 0.00 0.00
9:53 pm 21:53 Clear 55 12.8 45 7.2 69 69 W 5 7 30.12 1020 10 16 0.00 0.00
10:53 pm 22:53 Mostly Cloudy 53 11.7 45 7.2 74 74 Calm 30.13 1020 10 16 0.00 0.00
11:53 pm 23:53 Clear 50 10 45 7.2 83 83 NW 3 6 30.14 1021 10 16 0.00 0.00

Powered by AerisWeather